Hourly Weather Klawkowo

Today, 29 July, Thursday

Time Temperature Precipitation Wind Pressure Humidity
00:00 +18°C° 0 mm 2 mps 742 mmHg 90%
01:00 +17°C° 0 mm 2 mps 742 mmHg 92%
02:00 +17°C° 0 mm 2 mps 742 mmHg 92%
03:00 +16°C° 0 mm 2 mps 742 mmHg 93%
04:00 +16°C° 0 mm 2 mps 742 mmHg 93%
05:00 +17°C° 0 mm 3 mps 742 mmHg 88%
06:00 +18°C° 0 mm 3 mps 742 mmHg 83%
07:00 +19°C° 0 mm 3 mps 742 mmHg 79%
08:00 +21°C° 0 mm 4 mps 742 mmHg 69%
09:00 +22°C° 0 mm 4 mps 742 mmHg 59%
10:00 +25°C° 0 mm 5 mps 742 mmHg 49%
11:00 +25°C° 0 mm 5 mps 741 mmHg 49%
12:00 +25°C° 0 mm 5 mps 741 mmHg 48%
13:00 +23°C° 0 mm 5 mps 741 mmHg 47%
14:00 +23°C° 0 mm 5 mps 741 mmHg 48%
15:00 +23°C° 0 mm 5 mps 741 mmHg 49%
16:00 +22°C° 0 mm 5 mps 741 mmHg 51%
17:00 +21°C° 0.1 mm 5 mps 741 mmHg 54%
18:00 +20°C° 0.1 mm 4 mps 741 mmHg 58%
19:00 +19°C° 0.1 mm 3 mps 741 mmHg 61%
20:00 +18°C° 0 mm 3 mps 741 mmHg 65%
21:00 +17°C° 0 mm 3 mps 742 mmHg 69%
22:00 +16°C° 0 mm 3 mps 742 mmHg 72%
23:00 +14°C° 0 mm 3 mps 742 mmHg 72%

Tomorrow, 30 July, Friday

Time Temperature Precipitation Wind Pressure Humidity
00:00 +14°C° 0 mm 3 mps 742 mmHg 71%
01:00 +14°C° 0 mm 3 mps 741 mmHg 71%
02:00 +13°C° 0 mm 3 mps 741 mmHg 72%
03:00 +13°C° 0 mm 3 mps 741 mmHg 74%
04:00 +12°C° 0 mm 3 mps 741 mmHg 75%
05:00 +14°C° 0 mm 4 mps 741 mmHg 71%
06:00 +15°C° 0 mm 5 mps 741 mmHg 66%
07:00 +16°C° 0 mm 6 mps 741 mmHg 62%
08:00 +19°C° 0 mm 6 mps 741 mmHg 55%
09:00 +20°C° 0 mm 7 mps 741 mmHg 48%
10:00 +21°C° 0 mm 7 mps 741 mmHg 41%
11:00 +22°C° 0 mm 7 mps 740 mmHg 39%
12:00 +23°C° 0 mm 7 mps 740 mmHg 37%
13:00 +24°C° 0 mm 7 mps 740 mmHg 34%
14:00 +24°C° 0 mm 7 mps 740 mmHg 35%
15:00 +24°C° 0 mm 7 mps 740 mmHg 35%
16:00 +26°C° 0 mm 6 mps 740 mmHg 35%
17:00 +23°C° 0 mm 6 mps 739 mmHg 40%
18:00 +22°C° 0 mm 5 mps 739 mmHg 45%
19:00 +21°C° 0 mm 4 mps 739 mmHg 49%
20:00 +19°C° 0 mm 3 mps 739 mmHg 55%
21:00 +18°C° 0 mm 3 mps 740 mmHg 61%
22:00 +17°C° 0 mm 3 mps 740 mmHg 66%
23:00 +16°C° 0 mm 2 mps 740 mmHg 68%

Day after tomorrow, 31 July, Saturday

Time Temperature Precipitation Wind Pressure Humidity
00:00 +16°C° 0 mm 2 mps 740 mmHg 70%
01:00 +15°C° 0 mm 2 mps 740 mmHg 72%
02:00 +15°C° 0 mm 2 mps 739 mmHg 73%
03:00 +15°C° 0 mm 2 mps 739 mmHg 73%
04:00 +15°C° 0 mm 2 mps 739 mmHg 74%
05:00 +16°C° 0 mm 3 mps 739 mmHg 69%
06:00 +18°C° 0 mm 3 mps 739 mmHg 65%
07:00 +19°C° 0 mm 4 mps 739 mmHg 61%
08:00 +21°C° 0.1 mm 4 mps 739 mmHg 59%
09:00 +22°C° 0.1 mm 4 mps 739 mmHg 57%
10:00 +23°C° 0.1 mm 5 mps 739 mmHg 55%
11:00 +25°C° 0.2 mm 5 mps 738 mmHg 49%
12:00 +26°C° 0.2 mm 6 mps 738 mmHg 44%
13:00 +28°C° 0.2 mm 6 mps 738 mmHg 38%
14:00 +28°C° 0 mm 6 mps 738 mmHg 36%
15:00 +27°C° 0 mm 7 mps 737 mmHg 35%
16:00 +27°C° 0 mm 7 mps 737 mmHg 33%
17:00 +26°C° 0 mm 6 mps 738 mmHg 40%
18:00 +23°C° 0 mm 6 mps 738 mmHg 46%
19:00 +21°C° 0 mm 6 mps 738 mmHg 53%
20:00 +20°C° 0 mm 5 mps 738 mmHg 56%
21:00 +19°C° 0 mm 5 mps 738 mmHg 59%
22:00 +17°C° 0 mm 5 mps 739 mmHg 62%
23:00 +16°C° 0 mm 5 mps 739 mmHg 68%

1 August, Sunday

Time Temperature Precipitation Wind Pressure Humidity
00:00 +17°C° 0 mm 4 mps 739 mmHg 73%
01:00 +15°C° 0 mm 4 mps 739 mmHg 78%
02:00 +15°C° 0 mm 4 mps 739 mmHg 82%
03:00 +14°C° 0 mm 4 mps 739 mmHg 85%
04:00 +14°C° 0 mm 4 mps 739 mmHg 89%
05:00 +15°C° 0 mm 4 mps 740 mmHg 83%
06:00 +17°C° 0 mm 4 mps 740 mmHg 78%
07:00 +16°C° 0 mm 5 mps 740 mmHg 72%
08:00 +19°C° 0 mm 5 mps 740 mmHg 65%
09:00 +20°C° 0 mm 5 mps 740 mmHg 57%
10:00 +21°C° 0 mm 5 mps 740 mmHg 50%
11:00 +22°C° 0 mm 4 mps 740 mmHg 46%
12:00 +23°C° 0 mm 4 mps 740 mmHg 42%
13:00 +25°C° 0 mm 4 mps 740 mmHg 38%
14:00 +25°C° 0 mm 4 mps 740 mmHg 39%
15:00 +23°C° 0 mm 4 mps 740 mmHg 39%
16:00 +23°C° 0 mm 4 mps 740 mmHg 40%
17:00 +22°C° 0 mm 3 mps 740 mmHg 45%
18:00 +21°C° 0 mm 3 mps 740 mmHg 49%
19:00 +20°C° 0 mm 3 mps 740 mmHg 54%
20:00 +18°C° 0 mm 3 mps 740 mmHg 62%
21:00 +16°C° 0 mm 2 mps 741 mmHg 70%
22:00 +15°C° 0 mm 2 mps 741 mmHg 78%
23:00 +15°C° 0 mm 2 mps 741 mmHg 80%

2 August, Monday

Time Temperature Precipitation Wind Pressure Humidity
00:00 +14°C° 0 mm 2 mps 741 mmHg 82%
01:00 +14°C° 0 mm 1 mps 741 mmHg 84%
02:00 +14°C° 0 mm 2 mps 741 mmHg 83%
03:00 +14°C° 0 mm 2 mps 741 mmHg 82%
04:00 +14°C° 0 mm 2 mps 741 mmHg 81%
05:00 +15°C° 0 mm 2 mps 741 mmHg 77%
06:00 +16°C° 0 mm 3 mps 741 mmHg 73%
07:00 +17°C° 0 mm 3 mps 741 mmHg 69%
08:00 +18°C° 0 mm 3 mps 742 mmHg 65%
09:00 +19°C° 0 mm 4 mps 742 mmHg 61%
10:00 +20°C° 0 mm 4 mps 742 mmHg 57%
11:00 +20°C° 0.1 mm 4 mps 742 mmHg 58%
12:00 +19°C° 0.1 mm 4 mps 742 mmHg 60%
13:00 +19°C° 0.1 mm 4 mps 742 mmHg 62%
14:00 +19°C° 0.1 mm 4 mps 742 mmHg 66%
15:00 +18°C° 0.1 mm 4 mps 742 mmHg 70%
16:00 +18°C° 0.1 mm 3 mps 743 mmHg 73%
17:00 +17°C° 0.1 mm 3 mps 742 mmHg 75%
18:00 +17°C° 0.1 mm 2 mps 742 mmHg 77%
19:00 +17°C° 0.1 mm 2 mps 742 mmHg 78%
20:00 +16°C° 0 mm 2 mps 743 mmHg 82%
21:00 +15°C° 0 mm 2 mps 743 mmHg 85%
22:00 +14°C° 0 mm 2 mps 743 mmHg 89%
23:00 +14°C° 0 mm 2 mps 743 mmHg 90%

3 August, Tuesday

Time Temperature Precipitation Wind Pressure Humidity
00:00 +14°C° 0 mm 2 mps 743 mmHg 90%
01:00 +13°C° 0 mm 2 mps 743 mmHg 91%
02:00 +13°C° 0 mm 2 mps 743 mmHg 92%
03:00 +13°C° 0 mm 2 mps 743 mmHg 92%
04:00 +12°C° 0 mm 2 mps 743 mmHg 93%
05:00 +13°C° 0 mm 3 mps 744 mmHg 86%
06:00 +14°C° 0 mm 4 mps 744 mmHg 79%
07:00 +17°C° 0 mm 4 mps 744 mmHg 72%
08:00 +18°C° 0 mm 4 mps 744 mmHg 63%
09:00 +19°C° 0 mm 5 mps 744 mmHg 55%
10:00 +21°C° 0 mm 5 mps 744 mmHg 46%
11:00 +22°C° 0 mm 5 mps 744 mmHg 42%
12:00 +23°C° 0 mm 5 mps 744 mmHg 39%
13:00 +23°C° 0 mm 4 mps 744 mmHg 35%
14:00 +23°C° 0 mm 4 mps 744 mmHg 35%
15:00 +23°C° 0 mm 4 mps 744 mmHg 36%
16:00 +23°C° 0 mm 4 mps 743 mmHg 36%
17:00 +22°C° 0 mm 3 mps 744 mmHg 44%
18:00 +20°C° 0 mm 2 mps 744 mmHg 51%
19:00 +18°C° 0 mm 2 mps 744 mmHg 58%
20:00 +17°C° 0 mm 2 mps 744 mmHg 63%
21:00 +16°C° 0 mm 1 mps 744 mmHg 68%
22:00 +15°C° 0 mm 1 mps 745 mmHg 73%
23:00 +15°C° 0 mm 1 mps 745 mmHg 73%
Show more